Wind_Speed
24 25 26 28 29 29 30 31 31 33 34 35 36 36 35 35 35 35 36 36 37 37 38 38 37 37 36 35 35 34 33 31 30 29 27 27 27 28 29 29 29 30 30 31 32 35 37 38 39 41 42 44 47 49 53 56 58 62 66 70 74 78 81 84 87 92 97 99 97 91 83 73 64 54
26 27 28 29 30 31 32 32 33 34 35 37 38 38 38 38 39 39 40 40 40 41 41 41 41 40 39 38 37 37 36 34 31 29 28 26 26 27 28 28 28 29 30 30 31 33 35 37 39 40 41 44 46 49 52 55 58 62 65 69 74 78 81 84 87 90 96 99 99 95 89 80 71 61
28 29 30 31 31 32 33 33 34 35 37 38 39 40 41 42 42 44 44 45 45 45 45 45 44 43 42 40 39 38 37 35 32 30 28 26 26 27 28 28 28 28 29 30 30 32 34 36 38 39 41 43 45 48 51 55 58 61 65 69 73 78 81 84 87 89 94 99 100 98 93 86 78 68
30 31 31 32 32 33 34 35 36 37 39 40 41 42 43 44 45 46 47 48 49 48 48 47 46 45 42 40 39 37 36 34 31 29 27 26 25 26 27 28 27 28 29 30 30 31 33 35 37 39 41 42 44 47 51 54 58 61 65 68 72 77 81 84 86 89 92 97 100 99 96 90 83 75
31 32 33 33 34 34 36 37 39 40 41 42 43 44 45 46 47 48 49 49 49 50 50 48 46 44 43 40 38 36 34 32 29 27 25 24 24 25 26 27 27 28 29 29 30 31 32 34 36 38 40 42 44 47 50 53 57 60 64 68 71 76 80 83 86 88 91 95 99 100 98 93 87 80
33 33 34 35 36 36 38 39 41 42 43 45 45 46 47 48 49 50 50 50 50 50 50 49 46 43 41 39 37 34 31 29 27 26 24 23 23 24 25 26 27 28 29 29 30 31 32 34 36 38 40 42 44 47 50 53 56 59 63 67 70 74 78 82 85 88 90 93 97 100 99 96 91 84
35 35 35 36 38 39 40 41 43 44 46 47 48 49 50 51 51 52 52 52 51 49 48 46 44 42 39 36 34 32 29 27 25 24 23 22 22 22 24 25 25 27 28 29 30 31 33 34 36 38 39 41 44 47 50 52 55 59 62 66 69 73 77 81 84 87 89 92 96 99 100 98 95 90
36 36 37 38 40 41 42 44 45 47 49 51 52 53 53 54 54 54 53 51 49 46 43 41 40 39 37 35 33 31 29 26 23 21 21 22 22 22 23 24 25 26 28 29 30 32 34 35 36 38 40 41 44 46 49 52 54 58 61 65 69 72 76 80 84 87 89 91 94 98 100 99 97 94
37 38 39 41 42 44 45 46 48 51 52 54 55 56 56 55 54 52 49 46 44 42 41 40 38 37 36 34 32 29 28 26 23 20 19 20 21 22 23 24 25 26 28 29 31 33 35 36 37 38 40 42 43 45 48 51 54 57 61 64 68 71 75 79 83 86 88 90 92 96 100 100 98 97
39 40 42 43 45 47 48 50 52 54 55 57 57 56 54 52 50 47 46 43 41 40 39 39 38 36 34 33 31 28 26 25 22 18 18 18 19 20 22 23 24 25 27 29 30 32 35 36 38 39 41 42 43 45 48 51 54 57 60 63 67 71 74 78 82 85 87 90 92 94 98 100 99 98
42 43 45 47 48 50 52 54 55 56 56 56 54 52 49 47 45 44 44 43 42 40 39 38 38 37 35 33 30 27 24 22 20 17 16 17 18 19 19 20 22 24 26 28 29 31 34 36 38 39 41 42 43 45 48 51 54 56 60 63 66 70 73 77 80 84 87 89 91 93 96 99 100 98
44 46 48 50 52 53 54 55 56 55 52 50 48 47 45 44 44 43 43 43 42 40 38 37 37 37 35 33 29 25 22 20 18 16 16 17 18 18 18 19 20 22 25 27 29 31 33 36 38 39 41 43 44 45 48 51 53 56 59 63 66 69 73 76 79 83 86 89 91 92 93 98 100 99
47 49 51 53 54 55 55 54 52 49 46 44 44 44 44 43 43 42 42 41 41 40 38 36 35 36 35 32 28 24 20 18 16 15 16 17 18 19 20 20 20 22 24 25 27 30 32 36 39 40 41 43 44 45 48 50 52 55 58 62 65 68 71 75 78 82 85 87 90 91 92 95 99 100
50 52 53 54 55 54 51 49 46 43 41 41 42 43 43 43 42 42 41 40 40 40 39 37 35 34 33 31 28 23 19 17 15 15 16 17 18 21 22 23 23 23 24 25 27 29 32 35 39 40 41 43 45 45 47 49 52 54 57 60 64 67 70 74 77 80 83 86 88 90 91 93 97 100
52 53 54 53 51 48 45 43 41 40 39 40 41 42 42 42 42 41 41 41 40 40 39 37 35 32 30 29 26 22 18 16 15 16 17 17 18 21 24 26 26 26 27 28 28 30 33 36 39 41 41 43 45 46 46 48 51 54 56 59 62 66 69 72 76 79 82 84 86 89 91 91 95 99
52 52 50 48 45 43 41 40 38 38 38 39 40 41 41 41 41 40 40 41 41 40 40 39 35 31 28 26 24 20 18 16 16 16 17 18 19 20 23 27 29 29 30 31 31 32 34 37 39 41 42 44 45 47 48 50 52 53 55 58 61 65 67 71 74 77 80 83 85 88 91 91 93 98
49 46 44 42 40 40 39 38 37 37 37 38 38 39 39 38 38 39 40 41 42 41 40 38 34 30 26 25 23 20 18 17 17 16 17 19 20 21 23 27 30 32 33 34 34 34 35 38 40 41 42 44 46 48 49 51 52 53 54 57 60 63 66 69 73 76 79 82 84 88 91 91 92 96
43 41 39 38 37 37 36 36 36 37 37 37 37 37 37 37 37 37 38 40 42 42 39 36 32 28 25 24 23 22 20 18 18 17 18 20 22 22 23 26 29 32 34 36 36 36 36 38 40 41 42 44 46 48 50 51 52 53 54 56 59 62 65 69 72 76 78 81 84 87 90 92 92 95
39 37 37 36 36 36 35 34 35 37 37 37 37 38 38 38 38 37 36 37 39 39 37 34 30 26 24 24 24 23 22 20 19 19 20 22 23 23 24 25 28 32 35 37 37 38 38 39 40 41 42 43 45 48 50 51 53 53 54 56 59 62 64 68 71 75 78 80 83 87 90 92 93 94
37 36 36 36 36 36 36 35 35 37 37 37 38 39 40 40 40 39 36 35 34 32 32 31 29 26 24 23 23 23 23 23 21 21 22 23 24 25 25 26 28 31 34 37 38 39 39 40 42 43 43 43 45 47 50 52 53 54 54 56 59 61 63 66 70 73 77 80 82 86 89 92 93 94
37 36 36 36 37 38 38 37 38 39 39 39 39 40 41 41 41 40 36 32 29 29 30 30 29 28 26 23 23 23 23 23 23 23 24 25 26 26 27 27 28 30 34 37 38 40 41 42 43 44 45 46 46 48 50 52 53 53 55 56 58 61 63 65 69 72 76 79 81 84 88 91 93 93
36 36 36 36 37 39 39 40 42 42 42 42 41 42 43 43 42 39 36 31 29 30 33 31 29 30 29 25 23 23 23 24 24 25 26 27 27 27 28 29 30 31 35 38 39 40 42 43 44 44 46 47 48 48 49 51 52 53 55 57 58 60 62 65 68 71 74 77 80 83 87 90 91 92
36 37 38 38 39 40 41 43 44 45 45 45 44 45 45 46 44 39 35 33 32 31 33 32 31 34 33 29 26 25 24 25 25 26 27 28 29 29 30 33 33 34 37 41 42 43 44 44 45 44 45 47 48 48 49 50 52 53 55 57 59 61 62 64 67 69 72 76 78 81 85 88 90 91
36 37 38 39 40 42 43 45 46 47 47 47 46 47 46 47 47 42 36 34 35 35 35 34 34 37 37 34 31 29 28 27 26 27 28 29 30 32 34 37 38 37 39 42 44 46 47 47 47 45 45 46 47 48 48 50 52 53 55 57 59 61 63 64 66 69 71 75 77 80 84 87 88 90
37 37 38 39 41 42 44 46 47 49 50 49 49 50 50 50 51 47 41 36 35 37 39 38 38 38 38 38 38 36 34 34 33 33 33 33 35 37 39 41 42 41 42 43 45 47 49 50 49 46 45 46 47 47 48 49 51 53 55 58 60 61 63 64 66 68 71 74 76 79 83 86 87 88
38 38 39 41 42 44 45 47 48 51 53 53 54 55 54 53 53 50 45 39 35 35 39 41 43 44 43 43 45 43 41 41 43 44 43 43 43 44 45 47 48 46 45 46 48 50 52 53 51 48 46 46 47 48 49 50 51 53 55 57 59 61 63 64 66 68 70 73 76 79 82 85 86 87
40 40 41 42 45 46 47 48 49 51 55 56 57 58 57 55 53 50 44 40 37 36 37 40 43 47 49 49 48 46 45 44 44 45 46 48 49 49 50 52 53 50 48 50 53 55 55 55 54 50 47 46 47 48 50 51 52 53 55 57 59 61 62 64 65 67 69 72 75 78 81 84 85 86
42 41 42 44 47 49 50 51 51 53 55 57 57 58 56 55 53 48 43 41 41 40 39 40 43 47 51 52 49 44 43 44 44 44 45 46 49 51 52 52 51 49 49 53 57 57 56 56 54 51 49 47 47 49 51 53 53 53 55 57 60 61 63 64 64 66 69 71 74 77 80 83 84 84
44 43 44 46 48 50 52 53 53 54 56 56 57 58 56 54 52 47 44 43 43 44 45 45 43 43 47 49 48 45 44 45 47 49 48 46 46 48 49 47 46 48 52 55 55 53 53 53 53 51 49 47 47 50 53 54 54 54 56 58 60 61 63 64 64 66 68 70 73 76 79 81 82 83
46 46 46 48 50 51 52 54 54 55 56 57 58 58 57 55 52 50 49 47 45 47 50 50 46 44 44 44 44 44 42 43 46 49 50 48 45 44 44 44 45 48 51 51 50 49 49 50 51 51 49 48 49 52 55 55 55 55 57 59 60 62 63 64 64 66 68 70 72 75 78 80 81 82
48 48 49 50 51 52 53 55 56 57 57 58 59 60 60 59 56 55 54 51 48 49 51 48 46 46 45 41 39 39 41 44 47 50 52 51 45 41 42 43 43 44 45 46 47 47 48 49 50 50 49 48 50 54 56 56 56 56 57 59 60 61 63 64 64 66 68 70 72 75 77 79 81 82
50 51 52 52 53 53 54 55 56 57 58 58 59 60 61 62 61 60 59 56 53 51 48 44 45 48 50 47 44 44 49 54 57 58 57 54 48 44 43 43 41 41 45 47 48 48 49 50 50 49 48 48 50 54 56 56 56 57 58 59 60 61 63 63 64 66 68 70 72 75 77 78 80 81
52 53 54 55 55 56 55 56 57 57 58 58 59 59 60 61 61 62 61 60 58 54 48 43 43 49 53 50 47 50 55 59 61 62 60 57 52 50 49 45 42 43 47 49 50 50 51 52 51 49 48 48 50 53 57 57 57 59 60 60 60 61 63 63 64 65 67 70 72 74 76 77 79 80
54 55 55 56 57 57 57 57 58 58 58 59 60 60 61 62 63 63 62 62 60 56 50 44 42 44 46 46 47 50 53 55 58 60 59 56 54 53 53 51 49 47 48 49 51 51 51 53 52 50 50 50 49 52 57 58 59 61 62 61 60 61 62 63 63 64 67 70 72 74 76 77 78 79
57 57 57 58 59 58 58 58 59 60 60 60 61 61 62 63 64 64 65 65 63 58 54 49 44 40 39 40 43 46 48 52 59 63 62 59 57 57 57 59 59 55 50 49 51 50 49 52 54 52 51 51 50 52 56 58 59 61 61 61 61 61 62 63 63 64 66 69 72 74 76 77 77 79
60 60 60 60 60 60 60 60 61 62 62 62 62 61 61 63 64 65 65 66 65 62 57 53 48 43 39 37 39 44 48 53 60 66 67 65 63 60 58 60 63 62 56 51 50 48 48 52 55 55 53 52 52 54 56 56 57 60 61 61 60 61 62 63 63 63 66 69 71 74 76 77 77 78
63 63 63 63 62 62 61 62 63 63 64 64 63 63 62 63 64 64 64 65 65 64 61 56 52 48 43 41 42 48 53 55 58 63 67 67 65 61 59 60 63 66 64 56 49 47 48 51 55 56 55 54 54 56 56 56 57 60 61 60 60 61 62 63 63 64 66 68 71 73 76 77 77 78
66 66 66 65 65 64 63 64 64 64 65 65 65 64 64 63 63 63 64 64 65 64 62 58 54 50 45 43 44 47 52 56 58 61 63 64 64 63 64 65 63 63 64 61 53 48 47 50 54 56 55 54 54 56 57 56 57 60 61 61 61 61 62 63 64 64 66 69 71 73 75 76 77 78
69 69 68 68 67 66 65 65 66 66 67 67 66 65 64 63 62 62 62 63 65 66 64 61 59 54 46 43 45 47 48 50 52 54 56 61 65 67 69 68 62 56 57 61 60 54 50 51 54 55 54 53 55 57 59 59 59 61 62 62 61 62 63 64 64 66 67 70 72 73 75 76 77 77
72 72 71 70 69 69 69 69 69 69 68 68 68 67 65 64 62 62 61 61 64 68 67 65 64 59 48 42 45 47 46 45 47 49 51 54 56 59 62 62 58 53 54 59 62 57 52 53 56 56 55 56 57 59 61 61 61 61 62 62 62 64 65 65 66 67 68 71 72 73 75 77 77 76
75 75 75 74 73 73 72 72 71 70 69 69 68 67 66 65 62 61 60 61 64 68 67 64 63 59 49 41 42 44 45 44 42 43 46 48 47 48 51 53 52 51 53 58 60 54 49 52 58 59 58 59 60 61 62 62 62 63 63 63 64 65 65 66 67 68 69 71 72 73 75 77 77 77
78 78 78 77 77 76 76 74 73 71 70 70 68 67 66 64 61 60 60 62 66 69 67 62 58 54 46 40 39 41 42 40 36 34 35 35 34 35 39 41 42 44 49 54 57 51 46 49 57 61 63 63 63 62 62 61 62 64 66 66 66 66 66 67 68 69 70 71 72 73 75 77 77 78
81 81 81 81 80 80 78 77 75 73 71 69 68 67 65 62 59 59 61 63 66 66 64 59 54 47 41 38 38 38 36 35 34 33 31 26 24 26 31 36 39 43 48 52 52 46 43 50 58 63 65 66 64 62 62 63 65 67 69 68 67 67 68 69 70 70 71 72 72 73 75 76 77 78
84 84 84 84 83 82 81 78 76 74 72 70 68 67 66 62 58 57 59 62 63 62 59 54 48 41 37 36 35 35 33 31 31 30 29 27 24 25 32 41 47 49 49 48 45 41 43 52 62 66 67 65 64 63 64 67 69 71 71 69 69 69 70 70 71 71 71 71 72 73 75 76 77 78
86 87 87 86 86 84 83 81 78 76 74 71 68 67 65 60 55 53 54 56 59 59 55 48 40 34 33 33 34 33 32 29 25 23 24 25 25 26 33 42 48 50 47 41 38 41 48 56 64 68 68 66 65 67 69 71 73 73 73 71 70 71 71 71 71 71 70 71 72 73 74 76 77 79
Wind_Direction
329 329 329 329 330 330 331 331 332 332 332 333 334 334 334 334 333 333 334 334 334 334 333 332 330 329 328 327 328 328 328 327 326 323 318 317 319 321 324 328 330 334 338 342 345 348 351 353 355 356 357 356 355 354 354 354 355 356 356 357 358 358 359 360 1 2 4 6 6 5 4 5 5 1
326 326 326 327 327 328 328 328 328 328 328 329 329 330 330 330 330 330 330 330 330 330 329 328 326 325 324 324 325 325 324 324 323 321 316 313 312 315 320 324 326 329 334 338 341 345 349 351 353 355 355 355 354 354 354 354 355 355 355 356 357 358 358 359 1 2 3 5 6 6 4 4 5 4
321 322 323 324 324 324 324 324 324 325 325 326 326 327 327 327 328 328 328 328 328 327 326 325 324 323 322 322 322 321 320 319 318 318 314 309 308 310 315 319 322 325 329 334 338 342 347 350 353 355 355 355 354 353 354 355 355 355 355 355 356 357 358 359 1 2 3 5 6 6 5 4 4 5
318 319 320 321 321 322 322 321 322 322 323 324 324 325 326 326 326 326 325 325 324 324 323 322 321 320 319 318 318 317 316 314 314 313 310 305 303 305 310 315 319 323 327 331 335 340 344 349 353 356 356 355 353 353 354 355 355 354 354 354 355 356 357 358 0 1 2 3 6 7 6 5 4 4
315 317 318 318 319 319 320 320 320 321 322 323 323 323 324 323 323 322 321 321 320 320 319 318 317 316 315 315 315 314 312 310 309 309 306 301 298 300 305 311 316 320 324 328 332 337 343 348 352 355 357 356 353 353 355 355 355 354 353 353 353 354 356 357 359 1 2 2 5 7 7 6 5 5
315 316 316 317 318 318 319 319 320 320 321 321 321 321 320 320 319 318 318 317 317 317 316 315 315 314 313 314 313 312 310 307 306 305 302 297 294 296 301 308 314 318 321 325 329 334 342 347 349 353 356 357 354 353 353 354 354 353 353 352 352 353 354 356 357 360 1 2 4 7 7 6 6 6
314 315 316 316 317 318 318 319 319 319 319 318 318 317 317 317 316 316 315 315 315 315 315 314 314 314 314 314 313 311 309 306 304 302 297 292 290 292 299 306 311 316 319 322 326 332 340 346 348 350 354 356 355 353 352 353 353 353 353 353 352 352 352 354 356 358 360 1 2 5 7 6 6 7
314 314 315 316 316 316 317 317 317 316 316 316 316 316 316 316 315 314 315 315 315 316 315 314 314 314 314 315 314 312 308 304 300 295 290 286 286 289 296 304 310 315 318 322 326 331 339 345 347 348 351 354 355 354 352 353 354 354 353 352 352 352 351 352 354 356 358 360 1 4 6 7 6 7
313 313 314 314 315 315 315 315 315 315 315 315 315 315 315 315 314 315 316 317 317 317 316 315 315 314 315 314 314 311 307 302 296 288 282 280 282 286 294 304 310 314 318 322 326 331 337 343 346 347 349 352 354 354 354 355 356 354 353 352 351 351 351 351 353 354 356 358 0 2 5 7 7 7
312 313 313 313 313 313 313 314 314 314 314 314 314 314 314 315 316 317 318 319 319 318 317 317 316 316 315 315 314 312 306 299 291 282 277 276 278 283 292 302 309 315 319 322 325 329 334 341 345 347 348 351 352 353 355 356 356 354 353 352 351 350 350 350 351 353 355 357 359 0 3 6 7 7
312 312 312 312 312 312 313 313 313 313 313 313 314 315 315 316 318 320 321 321 320 320 319 318 317 317 316 315 315 312 306 296 287 278 275 277 281 287 295 303 309 315 319 323 325 327 331 338 344 346 347 349 351 353 355 356 356 354 352 351 350 349 349 349 350 351 353 356 358 359 0 3 6 7
311 311 310 310 311 311 312 312 312 313 314 315 315 316 318 319 322 324 324 322 321 321 320 319 318 316 316 316 314 311 304 293 282 275 277 282 289 296 304 309 315 318 321 324 326 326 329 335 342 346 346 348 350 351 353 355 356 354 352 350 349 348 348 348 349 350 352 354 356 357 358 1 4 6
309 309 309 309 309 310 311 311 312 314 316 317 318 319 320 322 324 326 326 324 322 321 320 320 319 317 315 315 313 310 302 289 277 273 278 287 297 305 311 316 319 321 322 326 328 328 328 333 340 344 344 345 349 350 352 354 355 355 352 350 348 347 347 347 347 349 350 351 353 355 357 359 2 5
307 307 308 308 308 309 310 311 313 316 318 320 320 320 322 324 326 327 326 324 322 321 320 321 320 318 315 314 312 310 301 286 273 271 278 289 301 310 316 319 322 322 323 328 331 331 331 333 338 343 344 345 347 349 350 352 355 356 353 350 349 348 347 347 347 347 348 349 351 354 355 357 359 2
306 306 307 307 308 309 310 313 316 320 321 322 322 322 323 324 326 326 325 323 321 321 321 320 319 318 315 312 311 309 299 281 267 269 278 289 302 312 318 321 324 324 323 327 331 333 333 334 337 343 346 346 347 349 350 353 356 356 354 351 349 348 347 346 346 346 347 348 349 352 354 355 357 0
305 306 306 307 308 310 313 317 321 323 323 324 324 324 324 325 325 324 324 321 320 321 321 319 317 316 312 309 309 306 293 273 262 269 282 292 301 311 317 321 324 325 324 326 329 332 333 333 335 341 345 346 348 350 352 354 357 357 354 351 349 348 347 346 346 346 346 346 348 350 352 354 355 358
305 305 306 307 310 314 318 322 324 324 325 327 326 325 326 326 324 324 323 322 322 322 321 318 316 313 310 308 308 305 290 270 262 273 290 299 304 310 316 320 324 325 325 327 328 329 331 331 332 337 342 344 346 349 351 354 356 356 354 351 349 348 347 346 345 344 344 345 346 349 350 352 354 356
304 305 307 310 313 317 320 323 323 323 325 326 325 325 325 326 326 324 323 324 325 323 320 317 316 314 312 309 308 306 295 277 267 276 293 304 308 310 313 318 322 323 323 325 327 329 330 330 331 335 339 342 344 347 349 352 354 355 354 351 349 348 347 346 344 343 343 344 345 347 349 350 352 354
305 307 310 313 315 317 319 322 321 321 323 324 323 323 324 325 326 325 325 328 327 323 321 321 320 318 314 310 309 307 300 286 274 277 290 302 309 309 309 314 320 321 321 322 325 328 329 329 330 333 337 341 343 344 347 350 353 354 354 352 350 349 347 346 344 343 343 344 344 345 347 349 350 352
307 310 312 314 315 317 319 321 320 319 321 322 322 323 323 324 325 324 327 331 328 326 328 329 326 323 317 311 308 305 299 291 281 278 285 295 302 304 306 311 317 318 318 320 322 324 326 327 328 331 334 339 343 344 346 349 351 353 353 352 350 349 348 346 345 343 343 343 343 344 346 347 349 350
308 310 312 313 316 317 320 321 319 318 320 321 321 322 322 323 323 324 327 329 327 328 332 332 330 326 319 310 306 300 295 291 286 282 283 287 292 296 300 305 311 315 316 318 319 318 319 321 324 328 331 335 340 344 345 347 350 350 351 352 351 349 348 347 346 344 343 342 343 343 344 346 347 348
306 308 310 312 315 317 318 319 317 318 319 320 321 321 321 321 322 322 323 320 318 321 323 325 329 327 318 307 301 297 292 289 286 283 281 281 284 290 295 299 305 309 311 314 317 317 316 316 318 323 327 331 336 341 343 345 347 348 349 350 350 349 348 347 346 344 343 342 342 343 343 344 346 347
304 306 309 312 315 316 316 316 315 316 317 318 319 319 319 319 318 318 317 310 306 309 312 316 323 326 319 308 297 292 291 289 286 285 285 285 286 289 292 295 299 302 305 309 313 316 317 317 316 318 322 326 331 337 340 342 344 345 346 347 348 348 348 347 346 344 343 342 341 341 343 344 344 345
301 304 308 311 313 314 314 314 314 315 315 317 318 317 317 316 314 315 314 307 299 297 299 305 315 321 322 315 302 292 289 289 288 287 288 289 291 293 295 296 297 298 301 305 309 311 314 317 316 315 317 321 326 332 336 338 340 342 344 345 346 346 346 346 345 344 343 342 341 341 342 343 344 345
301 304 308 310 311 313 312 312 313 314 314 315 315 314 313 313 311 311 311 308 300 294 291 293 301 310 318 319 311 298 289 286 286 286 287 289 291 295 297 298 298 297 298 301 305 307 310 314 314 313 313 317 322 327 331 334 336 340 343 343 343 344 344 345 344 343 342 341 340 340 341 342 343 344
302 306 309 311 312 312 311 312 313 313 313 313 312 312 312 312 312 311 309 307 303 298 294 290 290 294 303 311 311 304 295 288 282 281 283 287 292 295 296 296 296 296 297 301 304 305 308 311 312 311 310 313 318 323 327 330 334 338 341 340 340 341 342 343 343 342 341 340 339 339 340 341 342 343
304 308 311 313 312 311 311 312 314 313 312 312 312 312 312 313 313 313 310 307 305 303 299 294 289 287 291 299 304 303 301 299 292 286 285 287 290 293 294 295 294 293 296 301 304 306 307 309 310 310 309 311 315 320 323 326 331 336 338 338 338 339 340 342 342 342 341 339 339 339 339 340 341 342
306 310 313 313 312 311 312 313 314 313 313 313 314 314 313 312 313 314 314 314 313 312 308 301 293 288 288 293 298 298 298 301 301 297 294 290 288 289 291 293 294 293 296 302 306 307 308 308 309 309 309 310 313 316 320 324 329 334 335 334 335 336 337 340 341 340 340 339 337 337 338 339 340 340
307 311 312 311 311 311 312 313 313 313 313 314 314 315 314 313 314 316 318 320 321 320 318 311 304 296 292 294 298 297 294 295 296 295 294 292 290 291 294 295 296 297 299 302 306 308 308 307 308 310 310 310 310 313 318 322 326 331 332 331 332 333 335 337 339 339 338 338 336 336 337 338 338 339
308 310 310 310 310 311 312 312 312 313 313 313 314 315 314 313 313 314 318 322 322 319 316 312 309 305 299 297 300 302 302 303 301 299 298 297 295 296 298 297 297 297 299 302 306 307 307 306 307 309 311 309 307 310 315 320 325 328 329 328 329 330 332 335 337 337 336 336 335 335 336 337 337 338
307 309 309 309 310 310 310 311 312 313 314 314 315 315 315 313 312 311 314 318 318 314 312 312 314 312 305 300 303 307 308 308 306 304 305 306 303 300 299 298 296 297 300 304 306 306 305 305 306 308 309 308 306 309 313 318 323 325 326 326 327 328 330 333 335 334 334 334 334 334 335 336 336 337
306 307 307 308 309 309 309 310 311 312 313 313 314 313 312 312 311 310 311 312 311 310 313 319 320 312 302 297 297 297 295 295 293 293 298 303 303 300 299 298 297 299 303 306 307 306 306 308 307 306 305 306 306 308 312 317 320 321 322 325 326 327 329 331 333 332 332 331 332 333 334 334 335 336
305 306 307 307 308 308 309 310 311 311 312 312 312 311 310 310 309 308 308 308 309 311 316 320 313 300 292 289 286 283 281 280 281 283 288 292 293 293 295 295 295 300 305 306 305 307 308 308 308 305 302 303 306 308 311 316 317 317 320 323 325 325 327 329 331 331 330 330 331 332 333 333 334 334
303 304 306 307 307 308 309 310 310 310 311 311 311 310 310 310 308 307 306 307 308 310 314 314 305 290 282 280 280 279 278 280 282 284 287 289 286 283 285 287 290 299 307 305 302 305 308 307 306 304 301 302 306 309 311 314 316 315 317 321 323 324 325 326 328 329 328 328 329 330 331 332 332 333
302 304 305 306 306 308 309 310 310 310 310 311 311 311 311 310 308 307 307 306 307 308 310 311 305 291 276 270 273 276 278 281 282 282 283 285 282 277 277 279 282 290 302 302 298 299 305 305 304 302 300 301 305 308 310 313 313 312 314 318 321 322 323 325 327 328 327 327 328 329 330 330 331 332
302 303 305 305 307 308 309 310 310 310 311 311 310 311 310 309 308 306 305 304 305 307 308 310 308 296 277 261 258 261 264 269 273 274 273 275 275 274 275 275 275 282 292 297 296 296 299 302 302 300 298 299 303 306 309 311 309 308 310 315 318 320 322 324 326 327 326 326 327 328 328 329 329 330
301 303 304 305 307 308 309 310 310 311 311 311 311 310 310 308 306 304 303 303 303 304 306 308 308 299 281 262 253 253 252 253 259 264 266 268 270 271 271 270 272 278 284 288 292 296 297 299 301 299 296 296 299 303 308 308 306 305 309 314 316 319 321 323 325 326 325 325 326 326 327 327 328 329
300 302 303 305 307 308 308 309 310 310 310 310 310 309 308 306 304 302 301 301 301 302 304 306 307 301 284 265 256 253 250 248 251 255 259 264 266 267 268 270 273 277 279 279 283 291 297 299 298 295 293 293 296 301 305 305 303 305 309 313 315 318 320 322 324 324 324 324 324 325 325 326 326 327
300 301 303 305 306 307 308 309 310 310 310 309 309 308 305 303 302 300 300 301 301 303 305 307 307 303 288 266 255 253 253 252 253 254 257 260 262 264 267 270 274 279 277 273 275 284 294 297 294 292 291 292 294 298 301 301 301 304 308 312 314 317 319 321 322 323 323 322 322 323 324 324 325 326
300 302 303 305 306 307 308 309 310 310 310 309 309 307 305 303 302 301 301 301 301 302 304 306 305 303 292 271 257 254 254 255 258 260 262 263 263 264 267 270 274 280 278 271 271 280 290 291 289 290 291 291 292 295 296 297 300 304 307 311 314 316 317 319 320 321 321 321 321 321 322 323 323 324
300 302 303 305 306 308 308 309 309 309 310 309 308 307 305 303 302 301 300 299 298 298 300 302 302 299 291 274 259 255 255 256 259 263 266 268 269 269 269 269 273 279 278 271 269 277 286 285 284 287 289 288 289 292 292 294 298 303 306 310 312 314 316 317 318 319 319 319 319 319 320 321 322 323
301 302 304 305 306 307 307 308 308 309 309 308 307 306 304 302 302 300 299 297 297 297 299 301 299 294 286 274 263 257 253 252 255 260 265 269 273 273 272 272 276 282 281 273 270 276 282 280 279 282 283 284 286 288 289 292 297 301 305 309 311 312 314 315 317 318 318 318 318 318 319 320 321 321
301 302 303 304 305 306 306 307 307 307 307 307 306 304 302 301 300 299 297 295 296 298 300 301 297 289 278 270 264 258 253 253 258 262 263 266 271 275 277 275 274 276 276 273 271 275 279 276 274 277 279 281 284 285 287 291 296 299 302 307 310 311 312 314 316 317 317 317 316 316 317 318 319 319
300 301 302 303 304 304 305 305 306 305 305 305 304 303 301 299 299 298 295 294 296 299 300 299 293 283 271 266 264 261 260 264 266 263 257 255 259 271 279 276 268 265 268 270 270 271 271 270 270 273 275 278 281 284 287 290 294 297 301 305 308 309 311 312 314 316 315 315 314 314 315 316 316 317
299 300 301 302 303 303 304 305 305 305 305 305 304 303 301 300 301 300 299 299 303 305 303 299 288 272 261 261 264 263 262 261 254 244 241 245 250 257 267 269 265 265 269 272 272 273 269 264 264 267 271 275 279 282 285 289 292 295 299 303 305 307 309 310 312 313 313 312 312 313 313 314 314 315
Height
11008 11007 11006 11005 11003 11001 11000 10998 10997 10995 10992 10990 10989 10987 10986 10985 10983 10981 10980 10978 10976 10974 10972 10969 10967 10965 10963 10960 10958 10956 10954 10952 10949 10947 10944 10942 10940 10938 10935 10933 10930 10928 10926 10922 10919 10916 10913 10909 10905 10901 10897 10893 10889 10885 10881 10877 10873 10869 10864 10859 10854 10847 10840 10833 10824 10815 10806 10795 10784 10774 10766 10759 10753 10747
11007 11006 11005 11003 11002 11000 10999 10997 10996 10994 10992 10989 10987 10986 10984 10982 10980 10978 10977 10975 10973 10971 10969 10966 10964 10961 10959 10956 10954 10952 10950 10948 10946 10943 10941 10939 10938 10935 10933 10930 10928 10926 10924 10921 10918 10914 10911 10907 10903 10899 10895 10891 10887 10883 10879 10875 10870 10866 10861 10856 10850 10844 10837 10830 10822 10814 10805 10795 10784 10774 10764 10757 10751 10745
11005 11004 11003 11002 11000 10999 10997 10995 10994 10992 10990 10988 10986 10984 10982 10980 10977 10975 10972 10970 10968 10967 10964 10962 10959 10956 10954 10952 10950 10948 10946 10944 10942 10940 10938 10936 10935 10933 10930 10928 10926 10924 10922 10919 10916 10913 10909 10906 10901 10897 10893 10889 10885 10881 10877 10872 10867 10863 10858 10853 10847 10841 10835 10828 10820 10812 10804 10795 10785 10774 10765 10756 10749 10743
11003 11002 11001 11000 10998 10997 10995 10993 10992 10990 10988 10986 10984 10982 10980 10977 10975 10972 10970 10967 10964 10962 10960 10958 10955 10952 10950 10949 10947 10945 10942 10940 10938 10936 10934 10933 10931 10930 10927 10925 10923 10922 10920 10917 10914 10910 10907 10903 10899 10895 10891 10886 10882 10878 10874 10869 10865 10860 10855 10849 10844 10838 10832 10826 10819 10811 10803 10795 10786 10776 10766 10757 10749 10741
11001 11000 10999 10997 10996 10995 10993 10991 10989 10988 10986 10984 10982 10980 10978 10975 10973 10970 10967 10964 10961 10958 10955 10953 10951 10948 10946 10944 10943 10941 10938 10936 10934 10933 10931 10929 10928 10926 10925 10923 10921 10919 10917 10915 10911 10908 10904 10901 10896 10892 10888 10884 10880 10875 10871 10866 10862 10857 10852 10846 10841 10836 10830 10824 10817 10810 10803 10795 10787 10777 10767 10759 10750 10741
10999 10997 10996 10995 10993 10992 10991 10989 10987 10985 10983 10981 10979 10978 10976 10973 10970 10967 10964 10961 10958 10955 10951 10948 10946 10944 10942 10940 10938 10936 10934 10932 10930 10928 10927 10925 10924 10923 10922 10920 10918 10916 10914 10912 10909 10905 10901 10898 10893 10889 10885 10881 10877 10872 10867 10863 10858 10854 10849 10844 10839 10833 10827 10822 10816 10809 10802 10795 10787 10778 10768 10760 10752 10743
10996 10995 10993 10992 10990 10989 10987 10986 10984 10981 10979 10977 10975 10973 10972 10969 10967 10963 10960 10957 10954 10951 10948 10944 10941 10939 10938 10936 10933 10931 10929 10927 10926 10924 10922 10921 10920 10920 10918 10917 10916 10914 10911 10909 10906 10902 10898 10895 10891 10887 10883 10878 10874 10869 10864 10859 10855 10850 10846 10841 10836 10830 10825 10820 10813 10807 10801 10794 10786 10778 10769 10760 10752 10743
10993 10992 10990 10989 10987 10985 10984 10982 10980 10978 10975 10973 10971 10969 10967 10964 10962 10959 10956 10953 10949 10946 10943 10941 10938 10935 10933 10931 10929 10926 10924 10923 10922 10920 10919 10917 10917 10916 10915 10914 10912 10910 10908 10906 10903 10899 10895 10892 10888 10884 10880 10875 10871 10866 10861 10856 10852 10847 10843 10838 10833 10828 10823 10817 10811 10805 10799 10793 10785 10778 10770 10761 10752 10743
10990 10989 10987 10986 10984 10982 10980 10978 10976 10973 10971 10968 10966 10964 10961 10959 10956 10954 10951 10949 10945 10942 10939 10936 10934 10932 10929 10927 10925 10923 10920 10918 10917 10917 10916 10914 10913 10912 10911 10910 10909 10907 10905 10903 10899 10896 10892 10889 10885 10881 10877 10873 10868 10864 10859 10854 10849 10844 10839 10834 10830 10825 10820 10815 10809 10803 10798 10791 10784 10776 10769 10761 10752 10743
10986 10985 10983 10982 10980 10978 10976 10974 10972 10969 10966 10964 10961 10959 10956 10953 10951 10948 10946 10943 10941 10939 10935 10932 10930 10928 10926 10924 10921 10920 10917 10915 10913 10913 10912 10912 10911 10910 10909 10907 10905 10904 10902 10900 10897 10893 10889 10885 10882 10878 10874 10870 10866 10861 10856 10850 10845 10840 10836 10831 10827 10823 10818 10812 10806 10801 10796 10789 10782 10774 10768 10762 10754 10745
10983 10981 10979 10977 10975 10974 10972 10969 10967 10965 10963 10959 10956 10954 10952 10949 10947 10944 10941 10938 10936 10935 10932 10929 10925 10923 10921 10920 10918 10916 10914 10912 10910 10910 10909 10908 10907 10907 10906 10905 10903 10901 10899 10897 10894 10890 10886 10882 10879 10875 10871 10867 10863 10858 10853 10847 10841 10837 10832 10828 10824 10820 10815 10809 10803 10798 10792 10786 10779 10773 10767 10762 10754 10746
10979 10977 10974 10972 10970 10969 10967 10965 10963 10961 10959 10956 10952 10949 10947 10945 10943 10941 10938 10934 10931 10930 10928 10926 10922 10919 10917 10915 10914 10912 10911 10909 10908 10907 10907 10906 10905 10904 10903 10902 10900 10898 10896 10894 10891 10887 10883 10879 10876 10872 10868 10864 10860 10856 10850 10844 10838 10833 10829 10825 10821 10817 10812 10806 10801 10795 10789 10783 10777 10772 10767 10761 10755 10747
10975 10973 10971 10968 10966 10964 10963 10961 10959 10957 10955 10953 10949 10945 10943 10941 10940 10937 10935 10931 10928 10925 10924 10922 10920 10916 10913 10911 10910 10909 10908 10906 10906 10905 10904 10903 10902 10901 10900 10899 10898 10896 10894 10892 10889 10885 10881 10876 10873 10869 10865 10861 10857 10853 10847 10841 10836 10831 10826 10822 10818 10814 10810 10804 10799 10793 10786 10781 10777 10772 10766 10760 10754 10748
10970 10968 10966 10964 10962 10960 10958 10957 10955 10954 10952 10949 10946 10943 10940 10938 10936 10934 10931 10928 10925 10922 10920 10918 10916 10914 10911 10909 10907 10906 10905 10904 10904 10904 10903 10902 10900 10898 10896 10895 10895 10893 10891 10889 10887 10884 10880 10875 10872 10868 10863 10858 10854 10850 10846 10840 10834 10828 10824 10820 10816 10812 10807 10803 10797 10791 10785 10781 10776 10771 10765 10759 10753 10747
10967 10964 10961 10959 10957 10956 10954 10953 10952 10950 10948 10946 10943 10940 10937 10935 10933 10930 10927 10924 10921 10919 10916 10913 10912 10910 10908 10906 10904 10903 10902 10902 10902 10902 10901 10900 10899 10897 10894 10891 10891 10890 10888 10887 10885 10883 10879 10875 10871 10867 10862 10857 10853 10849 10845 10840 10833 10826 10821 10818 10814 10810 10805 10801 10796 10790 10785 10780 10775 10769 10764 10758 10752 10746
10963 10960 10957 10954 10953 10951 10950 10949 10948 10946 10944 10942 10939 10936 10934 10932 10929 10927 10924 10921 10918 10916 10913 10910 10907 10906 10904 10903 10902 10901 10900 10899 10899 10899 10899 10899 10897 10895 10893 10889 10887 10886 10885 10884 10882 10880 10877 10873 10869 10865 10861 10856 10852 10847 10842 10837 10831 10824 10819 10815 10811 10807 10803 10799 10794 10788 10784 10778 10772 10767 10762 10756 10750 10744
10958 10956 10953 10951 10949 10947 10946 10945 10944 10942 10941 10939 10936 10933 10931 10928 10926 10923 10921 10918 10915 10913 10910 10907 10904 10903 10901 10900 10899 10899 10898 10897 10897 10897 10897 10896 10895 10893 10891 10888 10885 10883 10882 10880 10879 10877 10874 10870 10866 10862 10858 10854 10849 10844 10839 10833 10827 10821 10816 10813 10809 10805 10801 10796 10791 10786 10782 10776 10770 10764 10758 10753 10747 10741
10953 10951 10949 10948 10946 10944 10943 10941 10940 10937 10936 10934 10931 10929 10927 10925 10923 10920 10918 10916 10912 10909 10906 10904 10902 10900 10900 10899 10898 10897 10896 10895 10895 10895 10894 10893 10892 10891 10889 10886 10883 10880 10878 10876 10875 10873 10871 10867 10863 10859 10856 10851 10846 10841 10836 10830 10825 10819 10815 10810 10806 10803 10798 10793 10789 10784 10779 10773 10766 10760 10755 10749 10744 10738
10948 10947 10945 10944 10942 10940 10939 10938 10936 10933 10932 10929 10926 10924 10922 10920 10918 10916 10915 10913 10909 10906 10903 10901 10899 10898 10897 10897 10896 10895 10894 10893 10892 10892 10891 10890 10889 10888 10886 10883 10881 10877 10874 10871 10870 10868 10866 10863 10859 10855 10853 10849 10845 10839 10834 10828 10822 10817 10812 10808 10804 10800 10795 10791 10787 10782 10776 10769 10763 10757 10751 10746 10740 10735
10943 10942 10941 10939 10938 10936 10935 10934 10932 10930 10928 10926 10923 10920 10917 10915 10914 10912 10911 10909 10905 10902 10900 10898 10897 10895 10894 10894 10893 10892 10890 10889 10889 10888 10888 10887 10886 10884 10882 10880 10877 10874 10870 10867 10865 10863 10861 10858 10855 10851 10848 10846 10843 10838 10831 10826 10820 10814 10810 10806 10802 10797 10793 10789 10784 10779 10773 10767 10761 10755 10749 10743 10737 10731
10939 10938 10937 10936 10934 10932 10931 10930 10928 10926 10924 10923 10920 10918 10914 10912 10910 10909 10908 10906 10902 10899 10897 10895 10893 10892 10891 10890 10890 10889 10887 10886 10885 10885 10884 10883 10881 10880 10878 10876 10873 10870 10866 10863 10861 10858 10856 10854 10850 10847 10843 10840 10838 10834 10829 10823 10818 10812 10808 10804 10800 10795 10791 10787 10782 10777 10771 10765 10759 10753 10747 10741 10735 10729
10935 10934 10933 10932 10931 10929 10927 10925 10923 10921 10920 10918 10917 10915 10911 10909 10907 10906 10905 10903 10900 10897 10894 10891 10891 10890 10889 10888 10887 10887 10885 10884 10883 10882 10880 10879 10877 10876 10874 10872 10870 10867 10862 10859 10857 10854 10851 10849 10846 10843 10839 10835 10833 10830 10826 10821 10816 10811 10806 10802 10798 10793 10788 10784 10780 10775 10770 10764 10758 10752 10747 10741 10734 10728
10932 10930 10929 10928 10927 10925 10923 10920 10918 10917 10916 10914 10913 10911 10908 10905 10903 10902 10902 10900 10898 10896 10892 10889 10888 10888 10887 10887 10886 10885 10884 10882 10881 10879 10877 10876 10874 10872 10871 10868 10866 10863 10859 10855 10853 10850 10847 10844 10842 10839 10836 10832 10828 10825 10822 10818 10814 10809 10804 10799 10794 10790 10785 10781 10777 10773 10768 10762 10757 10752 10746 10740 10734 10727
10929 10927 10926 10925 10923 10921 10919 10916 10914 10912 10911 10910 10909 10907 10905 10902 10899 10898 10898 10897 10895 10894 10891 10888 10886 10885 10885 10885 10884 10883 10881 10880 10878 10876 10874 10873 10870 10868 10867 10864 10862 10859 10855 10851 10849 10846 10842 10840 10837 10834 10831 10828 10824 10822 10819 10816 10812 10807 10802 10796 10791 10787 10782 10778 10774 10770 10766 10761 10755 10750 10744 10738 10732 10725
10925 10925 10924 10922 10920 10918 10915 10912 10910 10907 10905 10905 10903 10901 10899 10897 10894 10893 10893 10892 10891 10891 10889 10887 10884 10882 10881 10881 10880 10880 10878 10876 10874 10872 10870 10868 10866 10864 10862 10860 10857 10854 10850 10847 10845 10841 10838 10836 10833 10830 10827 10823 10820 10818 10815 10813 10809 10804 10798 10793 10788 10783 10779 10774 10771 10767 10763 10759 10753 10748 10742 10737 10730 10723
10921 10921 10920 10918 10916 10914 10911 10908 10906 10903 10900 10898 10896 10894 10892 10891 10889 10887 10886 10885 10885 10885 10884 10882 10880 10877 10876 10875 10874 10874 10873 10871 10869 10867 10865 10862 10861 10860 10857 10854 10852 10849 10846 10842 10840 10837 10834 10831 10829 10826 10822 10818 10816 10813 10811 10809 10806 10801 10795 10790 10785 10781 10776 10771 10768 10764 10760 10756 10751 10745 10740 10734 10728 10722
10917 10917 10916 10913 10910 10907 10905 10904 10902 10899 10895 10892 10890 10887 10885 10884 10882 10881 10880 10879 10879 10879 10878 10876 10874 10871 10869 10869 10868 10866 10864 10863 10861 10860 10860 10858 10856 10854 10852 10849 10847 10844 10841 10838 10835 10832 10829 10827 10824 10822 10818 10814 10811 10808 10806 10804 10801 10797 10793 10788 10783 10779 10774 10770 10765 10762 10758 10753 10748 10743 10738 10732 10727 10721
10913 10913 10911 10908 10904 10901 10899 10898 10897 10894 10890 10887 10885 10882 10880 10878 10877 10876 10875 10874 10873 10873 10871 10869 10867 10864 10862 10861 10861 10859 10857 10855 10853 10853 10853 10852 10850 10848 10847 10845 10843 10840 10836 10833 10830 10827 10824 10822 10819 10817 10814 10810 10807 10804 10801 10798 10796 10793 10789 10785 10781 10776 10771 10767 10763 10759 10755 10751 10746 10741 10736 10731 10725 10720
10907 10908 10906 10902 10898 10896 10894 10892 10890 10887 10884 10882 10879 10876 10874 10872 10871 10870 10870 10869 10868 10866 10864 10861 10859 10858 10856 10854 10853 10851 10850 10849 10847 10845 10845 10846 10844 10843 10842 10841 10839 10836 10832 10829 10825 10822 10819 10817 10814 10812 10810 10807 10803 10800 10797 10793 10791 10788 10786 10782 10778 10774 10768 10764 10759 10755 10751 10748 10744 10740 10735 10730 10724 10718
10902 10902 10900 10896 10894 10891 10889 10886 10884 10881 10879 10876 10873 10870 10868 10866 10865 10864 10864 10864 10863 10860 10858 10856 10854 10853 10851 10850 10848 10846 10844 10843 10841 10837 10837 10838 10839 10839 10838 10837 10835 10832 10828 10825 10821 10818 10814 10811 10808 10807 10805 10803 10799 10796 10793 10789 10786 10785 10782 10779 10775 10771 10766 10761 10756 10752 10748 10745 10742 10738 10733 10728 10722 10716
10896 10895 10893 10891 10889 10887 10884 10881 10878 10875 10872 10869 10866 10863 10860 10859 10859 10857 10858 10860 10859 10856 10853 10853 10852 10850 10848 10846 10845 10842 10840 10838 10836 10833 10831 10832 10833 10834 10833 10831 10829 10826 10823 10821 10817 10813 10810 10807 10804 10802 10801 10799 10795 10791 10788 10785 10782 10780 10779 10776 10772 10768 10763 10757 10752 10748 10744 10742 10739 10735 10731 10725 10719 10714
10890 10889 10887 10885 10883 10881 10879 10877 10873 10870 10867 10865 10862 10859 10855 10853 10851 10849 10849 10852 10853 10851 10850 10850 10849 10846 10843 10841 10840 10840 10839 10834 10830 10827 10826 10827 10828 10828 10827 10825 10823 10820 10817 10814 10811 10807 10804 10802 10799 10798 10796 10794 10790 10786 10783 10781 10778 10776 10775 10773 10768 10763 10759 10754 10749 10745 10741 10738 10736 10732 10727 10722 10716 10711
10884 10883 10881 10879 10876 10874 10873 10871 10868 10865 10863 10860 10857 10855 10851 10848 10845 10843 10842 10842 10842 10841 10843 10845 10844 10839 10835 10832 10833 10835 10833 10828 10822 10820 10820 10821 10822 10822 10820 10817 10816 10813 10810 10807 10804 10801 10798 10796 10794 10793 10791 10789 10786 10781 10777 10775 10774 10771 10770 10768 10764 10759 10754 10750 10746 10742 10738 10734 10732 10728 10724 10719 10714 10708
10878 10877 10875 10873 10870 10868 10866 10865 10862 10859 10857 10854 10851 10847 10844 10842 10839 10836 10834 10832 10831 10832 10834 10836 10835 10831 10826 10825 10827 10828 10825 10821 10817 10814 10814 10814 10816 10817 10814 10810 10807 10806 10804 10800 10798 10795 10793 10790 10788 10787 10785 10784 10783 10777 10771 10769 10767 10765 10763 10762 10759 10755 10751 10747 10743 10739 10734 10730 10727 10723 10719 10715 10711 10705
10870 10869 10868 10866 10863 10861 10859 10857 10854 10852 10849 10847 10844 10841 10838 10834 10830 10828 10825 10822 10821 10823 10824 10824 10823 10821 10818 10819 10822 10822 10821 10817 10812 10807 10805 10805 10807 10808 10807 10803 10800 10798 10798 10795 10792 10791 10789 10785 10782 10781 10779 10778 10778 10774 10769 10765 10762 10759 10757 10757 10754 10751 10747 10743 10739 10735 10731 10727 10722 10718 10714 10711 10706 10701
10862 10861 10860 10859 10857 10855 10852 10849 10846 10843 10841 10838 10836 10834 10832 10828 10824 10820 10818 10814 10812 10812 10813 10813 10813 10810 10808 10808 10809 10809 10809 10808 10803 10797 10795 10795 10796 10798 10800 10798 10793 10792 10792 10790 10787 10785 10784 10781 10777 10775 10773 10772 10771 10768 10765 10762 10758 10754 10753 10752 10750 10747 10744 10739 10736 10732 10728 10723 10719 10714 10709 10705 10701 10696
10854 10852 10851 10850 10849 10847 10845 10842 10839 10836 10833 10830 10828 10826 10824 10821 10818 10814 10810 10807 10805 10804 10803 10803 10803 10800 10797 10796 10796 10794 10792 10790 10787 10784 10783 10784 10785 10788 10791 10790 10788 10786 10785 10784 10782 10781 10778 10776 10772 10769 10767 10767 10764 10761 10760 10758 10754 10749 10748 10748 10745 10742 10739 10735 10731 10728 10724 10719 10715 10711 10706 10701 10697 10692
10845 10844 10843 10842 10841 10840 10838 10835 10832 10829 10826 10823 10821 10818 10816 10813 10811 10807 10803 10800 10797 10796 10794 10793 10792 10789 10786 10785 10785 10783 10780 10778 10777 10777 10776 10775 10776 10778 10779 10781 10783 10781 10777 10776 10777 10776 10773 10770 10768 10764 10762 10761 10759 10755 10754 10753 10749 10745 10743 10742 10739 10736 10733 10730 10726 10723 10719 10715 10711 10707 10703 10698 10694 10689
10837 10836 10835 10834 10833 10831 10829 10827 10824 10822 10819 10816 10813 10811 10808 10806 10803 10799 10795 10791 10787 10785 10784 10783 10781 10779 10776 10774 10773 10772 10772 10772 10772 10772 10771 10769 10768 10769 10770 10773 10776 10776 10772 10770 10771 10771 10768 10765 10762 10759 10757 10756 10753 10750 10748 10746 10744 10741 10738 10736 10733 10730 10727 10723 10720 10717 10714 10710 10706 10702 10698 10694 10690 10685
10828 10826 10825 10825 10824 10822 10820 10818 10815 10813 10810 10807 10804 10801 10799 10797 10794 10791 10787 10783 10779 10776 10775 10774 10771 10768 10767 10765 10764 10763 10764 10764 10764 10763 10763 10763 10763 10763 10764 10766 10768 10768 10766 10765 10766 10766 10764 10760 10756 10753 10752 10750 10747 10745 10742 10739 10738 10736 10733 10731 10728 10725 10722 10718 10715 10712 10709 10705 10700 10697 10693 10689 10685 10681
10817 10816 10814 10814 10814 10812 10810 10808 10806 10804 10802 10799 10796 10793 10790 10787 10786 10782 10779 10775 10772 10770 10769 10767 10764 10760 10757 10756 10755 10755 10756 10757 10756 10756 10756 10756 10757 10757 10758 10760 10762 10762 10760 10760 10761 10761 10758 10755 10751 10748 10746 10744 10741 10738 10735 10733 10731 10730 10728 10726 10724 10720 10717 10714 10710 10707 10704 10699 10695 10691 10687 10683 10679 10675
10807 10805 10804 10803 10803 10802 10800 10799 10797 10795 10793 10790 10787 10785 10782 10779 10778 10775 10771 10767 10763 10760 10759 10758 10755 10751 10748 10747 10746 10746 10747 10749 10749 10749 10749 10750 10751 10752 10752 10753 10755 10755 10753 10752 10753 10754 10752 10750 10746 10742 10740 10738 10735 10732 10729 10727 10726 10724 10722 10720 10717 10714 10711 10708 10706 10702 10698 10694 10690 10685 10681 10676 10672 10669
10797 10795 10794 10793 10793 10791 10790 10789 10788 10786 10784 10782 10779 10776 10774 10772 10770 10766 10762 10758 10753 10750 10749 10748 10744 10741 10740 10738 10738 10738 10740 10740 10740 10740 10742 10743 10744 10745 10747 10748 10748 10747 10745 10745 10747 10748 10747 10745 10742 10737 10733 10731 10729 10725 10723 10721 10720 10718 10715 10713 10710 10706 10703 10700 10698 10695 10691 10687 10683 10679 10676 10672 10668 10664
10787 10785 10784 10784 10783 10782 10780 10780 10778 10776 10774 10773 10771 10767 10764 10763 10762 10758 10752 10748 10744 10742 10740 10738 10735 10733 10732 10731 10730 10731 10732 10732 10731 10731 10733 10735 10737 10739 10742 10743 10741 10740 10740 10741 10743 10744 10744 10741 10736 10731 10727 10725 10722 10718 10716 10715 10714 10712 10710 10707 10704 10700 10696 10693 10690 10688 10685 10681 10678 10674 10671 10668 10664 10660
10776 10775 10774 10773 10773 10772 10770 10769 10767 10765 10764 10763 10761 10758 10755 10753 10751 10748 10743 10738 10735 10733 10730 10728 10726 10725 10725 10724 10723 10723 10723 10724 10724 10725 10727 10728 10729 10732 10735 10735 10733 10733 10735 10737 10738 10739 10738 10735 10729 10724 10721 10719 10715 10711 10709 10708 10708 10706 10704 10701 10698 10694 10690 10686 10684 10682 10680 10676 10673 10670 10666 10663 10659 10655